WB7UVH Weather Reports


Display with metric or nautical units.
time (UTC)temp
F
wind
direction
speed
MPH
gust
MPH
rain 1hr
in
rain 24hr
in
rain mn
in
humidity
%
barometer
mb
20260831214504 87 84 0.0 12.0 0.00 0.00 0.00 31 1011.9
20260831213005 87 128 0.0 8.0 0.00 0.00 0.00 32 1012.0
20260831211505 86 123 0.0 13.0 0.00 0.00 0.00 32 1012.2
20260831210004 85 64 0.0 6.0 0.00 0.00 0.00 34 1012.1
20260831204504 85 131 0.0 14.0 0.00 0.00 0.00 36 1012.3
20260831203005 84 67 0.0 14.0 0.00 0.00 0.00 37 1012.4
20260831201504 84 146 1.0 12.0 0.00 0.00 0.00 37 1012.7
20260831200004 83 100 1.0 16.0 0.00 0.00 0.00 38 1012.9
20260831194504 82 103 0.0 18.0 0.00 0.00 0.00 39 1013.2
20260831193004 81 66 1.0 17.0 0.00 0.00 0.00 38 1013.4
20260831191504 81 144 0.0 12.0 0.00 0.00 0.00 40 1013.5
20260831190005 80 128 3.0 15.0 0.00 0.00 0.00 40 1013.8
20260831184504 80 96 1.0 12.0 0.00 0.00 0.00 41 1013.9
20260831183004 79 82 1.0 13.0 0.00 0.00 0.00 44 1014.0
20260831180004 77 72 0.0 13.0 0.00 0.00 0.00 47 1014.6
20260831174505 76 73 2.0 13.0 0.00 0.00 0.00 47 1014.8
20260831173004 75 82 0.0 5.0 0.00 0.00 0.00 50 1014.9
20260831171504 74 52 1.0 14.0 0.00 0.00 0.00 50 1014.9
20260831170004 73 78 1.0 10.0 0.00 0.00 0.00 53 1015.2
20260831163004 70 272 0.0 14.0 0.00 0.00 0.00 59 1015.5
20260831161503 68 42 1.0 9.0 0.00 0.00 0.00 60 1015.8
20260831154504 66 88 0.0 9.0 0.00 0.00 0.00 66 1016.1
20260831151504 62 27 1.0 10.0 0.00 0.00 0.00 72 1016.2
20260831150004 62 56 0.0 13.0 0.00 0.00 0.00 73 1016.3
20260831144505 61 72 0.0 9.0 0.00 0.00 0.00 74 1016.3
20260831143004 61 3 2.0 16.0 0.00 0.00 0.00 74 1016.4
20260831140004 60 70 3.0 13.0 0.00 0.00 0.00 75 1016.5
20260831133004 59 125 1.0 15.0 0.00 0.00 0.00 78 1016.4
20260831131504 59 19 1.0 16.0 0.00 0.00 0.00 78 1016.5
20260831124504 57 37 0.0 8.0 0.00 0.00 0.00 82 1016.7
20260831121505 57 63 0.0 0.0 0.00 0.00 0.00 85 1017.0
20260831120004 57 45 0.0 2.0 0.00 0.00 0.00 85 1017.1
20260831111503 57 155 0.0 0.0 0.00 0.00 0.00 84 1017.5
20260831110005 57 327 0.0 0.0 0.00 0.00 0.00 84 1017.5
20260831104504 57 327 0.0 2.0 0.00 0.00 0.00 84 1017.6
20260831103004 57 64 0.0 0.0 0.00 0.00 0.00 84 1017.6
20260831101504 57 156 0.0 0.0 0.00 0.00 0.00 84 1017.8
20260831100004 57 66 0.0 3.0 0.00 0.00 0.00 84 1017.7
20260831093004 57 278 0.0 0.0 0.00 0.00 0.00 85 1018.1
20260831091504 57 278 0.0 0.0 0.00 0.00 0.00 85 1018.2
20260831090004 57 278 0.0 0.0 0.00 0.00 0.00 85 1018.3
20260831084504 57 278 0.0 0.0 0.00 0.00 0.00 84 1018.4
20260831083004 57 278 0.0 0.0 0.00 0.00 0.00 84 1018.5
20260831081504 58 278 0.0 0.0 0.00 0.00 0.00 84 1018.7
20260831080005 58 278 0.0 0.0 0.00 0.00 0.00 83 1018.9
20260831074504 58 278 0.0 0.0 0.00 0.00 0.00 83 1019.1
20260831073004 58 278 0.0 0.0 0.00 0.00 0.00 83 1019.2
20260831071504 59 278 0.0 0.0 0.00 0.00 0.00 82 1019.3
20260831064504 59 278 0.0 0.0 0.00 0.00 0.00 81 1019.5
20260831063004 59 278 0.0 0.0 0.00 0.00 0.00 80 1019.5
20260831061504 60 278 0.0 0.0 0.00 0.00 0.00 79 1019.6
20260831054504 60 278 0.0 0.0 0.00 0.00 0.00 78 1019.8
20260831053003 61 278 0.0 0.0 0.00 0.00 0.00 77 1019.9
20260831051504 61 278 0.0 0.0 0.00 0.00 0.00 77 1020.0
20260831050004 61 278 0.0 0.0 0.00 0.00 0.00 76 1020.1
20260831044504 62 278 0.0 0.0 0.00 0.00 0.00 76 1020.2
20260831041504 62 278 0.0 0.0 0.00 0.00 0.00 74 1020.2
20260831040004 63 278 0.0 0.0 0.00 0.00 0.00 73 1020.2
20260831034504 63 279 0.0 0.0 0.00 0.00 0.00 72 1020.3
20260831033004 64 279 0.0 0.0 0.00 0.00 0.00 71 1020.2
20260831031504 65 279 0.0 0.0 0.00 0.00 0.00 70 1020.2
20260831030004 65 279 0.0 0.0 0.00 0.00 0.00 69 1020.2
20260831024504 66 279 0.0 0.0 0.00 0.00 0.00 67 1020.4
20260831023004 67 279 0.0 0.0 0.00 0.00 0.00 66 1020.5
20260831021504 68 279 0.0 0.0 0.00 0.00 0.00 64 1020.5
20260831013004 71 252 0.0 7.0 0.00 0.00 0.00 59 1020.6
20260831011504 71 246 0.0 7.0 0.00 0.00 0.00 57 1020.8
20260831010003 71 258 0.0 0.0 0.00 0.00 0.00 54 1020.9
20260831004504 72 277 0.0 0.0 0.00 0.00 0.00 54 1021.0
20260831003005 72 250 0.0 0.0 0.00 0.00 0.00 53 1021.1
20260831001504 72 253 0.0 0.0 0.00 0.00 0.00 52 1021.3
20260831000004 73 286 0.0 0.0 0.00 0.00 0.00 51 1021.3
20260830234504 73 245 0.0 0.0 0.00 0.00 0.00 51 1021.3
20260830233003 74 250 0.0 0.0 0.00 0.00 0.00 51 1021.5
20260830231504 75 234 0.0 0.0 0.00 0.00 0.00 48 1021.6
20260830230004 74 231 0.0 0.0 0.00 0.00 0.00 49 1021.8
20260830224504 75 205 0.0 0.0 0.00 0.00 0.00 48 1022.1
20260830223003 75 230 0.0 0.0 0.00 0.00 0.00 48 1022.4
20260830221504 74 262 0.0 0.0 0.00 0.00 0.00 48 1022.6
20260830220004 74 242 0.0 0.0 0.00 0.00 0.00 48 1022.8